Regional Weather Roundup
Issued by NWS

Home | Current Version | Previous Version | Text Only | Print | Product List | Glossary On
Versions: 1 2 3 4 5 6 7 8 9 10 11 12 13 14 15 16 17 18 19 20 21 22 23 24 25 26 27 28 29 30 31 32 33 34 35 36 37 38 39 40 41 42 43 44 45 46 47 48 49 50
000
ASUS43 KOAX 291002
RWRNE

WEATHER ROUNDUP FOR NEBRASKA
NATIONAL WEATHER SERVICE OMAHA NE
400 AM CST MON DEC 29 2014

NOTES: SATELLITE DATA IS BEING USED TO AUGMENT CLOUD COVER ABOVE
       12000 FEET.
       "FAIR" INDICATES FEW OR NO CLOUDS BELOW 12,000 FEET WITH NO
       SIGNIFICANT WEATHER AND/OR OBSTRUCTIONS TO VISIBILITY.

  * THESE STATIONS DO NOT REPORT WEATHER SUCH AS RAIN...SNOW OR FOG.

NEZ001>004-019>022-054>056-291100-
NEBRASKA PANHANDLE

CITY           SKY/WX    TMP DP  RH WIND       PRES   REMARKS
SCOTTSBLUFF    LGT SNOW  16  11  80 N18       30.10R WCI   0
ALLIANCE       LGT SNOW  16  13  88 N14       30.09R FOG     WCI   2
CHADRON        LGT SNOW  13  10  88 N12       30.22R FOG     WCI  -1
KIMBALL        CLOUDY    19  18  94 NW9       30.00R WCI   9
SIDNEY         PTCLDY    12   9  87 N14       30.04R WCI  -3
$$

NEZ057>060-069>072-079>082-291100-
SOUTHWEST NEBRASKA

CITY           SKY/WX    TMP DP  RH WIND       PRES   REMARKS
NORTH PLATTE   CLOUDY    19  15  84 NE9       30.14R WCI   8
IMPERIAL       CLOUDY    15  10  80 E8        30.07S WCI   4
LEXINGTON      CLOUDY    20  17  88 NE10      30.16R WCI   9
MCCOOK         PTCLDY    11   8  88 N8        30.11R WCI  -1
OGALLALA       CLOUDY    16  14  93 CALM      30.09S
$$

NEZ005>010-023>029-035>040-094-291100-
NORTH CENTRAL NEBRASKA

CITY           SKY/WX    TMP DP  RH WIND       PRES   REMARKS
VALENTINE      LGT SNOW  14  11  87 NE10      30.26R FOG     WCI   1
AINSWORTH      LGT SNOW  16  14  91 NE10      30.24R WCI   3
BROKEN BOW     LGT SNOW  18  14  84 NE10      30.17S FOG     WCI   6
O`NEILL        LGT SNOW  18  17  95 NE13      30.27R WCI   4
ORD            CLOUDY    18  14  84 NE6       30.23R WCI  10
$$

NEZ041-046>049-061>064-073>077-083>087-291100-
SOUTH CENTRAL NEBRASKA

CITY           SKY/WX    TMP DP  RH WIND       PRES   REMARKS
GRAND ISLAND   LGT SNOW  19  15  84 NE13      30.22R FOG     WCI   6
AURORA         CLOUDY    20  19  93 NE16      30.20S WCI   6
HASTINGS       CLOUDY    20  16  84 NE10      30.17R WCI   9
HEBRON         CLOUDY    26  22  87 NE5       30.19R WCI  20
HOLDREGE       CLOUDY    19  17  90 NE9       30.15R WCI   8
KEARNEY *      CLOUDY    18  16  93 N12       30.17S WCI   5
YORK           CLOUDY    19  18  93 NE13      30.22R WCI   7
$$

NEZ011>018-030>034-042>045-291100-
NORTHEAST NEBRASKA

CITY           SKY/WX    TMP DP  RH WIND       PRES   REMARKS
NORFOLK        LGT SNOW  19  16  88 NE8       30.27R FOG     WCI   9
ALBION         CLOUDY    19  15  85 NE9       30.25R WCI   8
BLAIR          CLOUDY    22  18  87 N10       30.24R WCI  11
COLUMBUS *     CLOUDY    19  12  73 NE9       30.26S WCI   9
FREMONT        CLOUDY    22  18  87 N7        30.27R WCI  13
TEKAMAH        CLOUDY    20  16  84 N14       30.29R WCI   7
WAYNE          CLOUDY    18  15  89 NE10      30.30R FOG     WCI   6
$$

NEZ050>053-065>068-078-088>093-291100-
SOUTHEAST NEBRASKA

CITY           SKY/WX    TMP DP  RH WIND       PRES   REMARKS
LINCOLN        CLOUDY    22  19  89 NE9       30.25R WCI  12
OMAHA EPPLEY   CLOUDY    22  18  85 N12       30.28R WCI  10
BEATRICE       CLOUDY    26  23  89 NE9       30.20S WCI  17
FALLS CITY     CLOUDY    29  23  78 CALM      30.20S
NEBRASKA CITY  CLOUDY    26  26  98 N9        30.21S FOG     WCI  17
PLATTSMOUTH    CLOUDY    24  21  89 N10       30.22S WCI  13
$$

NEZ044-045-051>053-067-291100-
OMAHA AREA

CITY           SKY/WX    TMP DP  RH WIND       PRES   REMARKS
OMAHA EPPLEY   CLOUDY    22  18  85 N12       30.28R WCI  10
BLAIR          CLOUDY    22  18  87 N10       30.24R WCI  11
FREMONT        CLOUDY    22  18  87 N7        30.27R WCI  13
MILLARD        CLOUDY    23  19  83 N6        30.25S WCI  16
OFFUTT AFB     CLOUDY    23  20  85 NE10      30.24S WCI  13
PLATTSMOUTH    CLOUDY    24  21  89 N10       30.22S WCI  13
WAHOO          CLOUDY    22  18  83 N12       30.25R WCI  10
$$


USA.gov is the U.S. government's official web portal to all federal, state and local government web resources and services.